Wind_Speed
4 6 1 5 3 4 8 6 3 3 6 4 4 7 8 16 28 25 26 29 26 19 12 8 6 4 3 5 7 7 5 4 6 3 4 5 9 16 21 17 15 14 10 11
7 1 4 7 9 10 9 8 6 4 10 6 6 6 7 3 12 27 30 28 25 22 14 9 2 1 2 6 8 7 2 2 0 1 4 10 10 12 14 19 23 26 28 21
6 4 11 9 8 8 4 6 3 3 5 5 3 6 5 3 17 20 25 23 19 17 15 7 2 5 3 7 9 3 1 2 5 6 10 14 19 16 18 25 29 28 25 22
4 1 9 8 6 4 3 3 3 5 4 2 3 4 5 5 7 13 24 23 19 15 7 4 2 5 1 5 5 4 3 12 11 10 11 12 13 15 20 25 26 23 23 22
5 3 5 6 2 1 5 3 3 3 3 2 4 3 7 6 4 1 3 12 11 10 5 5 7 7 5 10 9 5 4 5 8 12 13 15 17 16 15 19 22 25 27 27
3 1 4 3 3 7 2 5 6 5 3 3 4 4 6 3 2 4 12 12 9 6 4 6 7 10 13 16 13 9 10 10 14 18 16 16 19 20 23 23 24 26 28 28
7 5 2 3 6 8 12 7 5 6 5 4 5 6 4 5 5 10 10 7 7 4 5 9 13 17 15 18 9 9 12 18 21 22 20 21 21 22 22 23 27 30 27 26
3 5 1 1 3 1 2 6 5 1 1 5 6 3 4 5 7 9 10 11 9 7 9 12 15 11 8 6 10 12 16 17 17 15 17 21 26 29 29 30 28 27 27 29
3 2 2 4 2 5 4 3 4 4 2 2 2 2 5 2 3 5 11 13 9 10 11 9 7 8 10 12 12 15 17 18 22 28 31 36 41 38 36 35 34 34 33 29
1 1 2 2 2 2 5 3 3 3 0 3 3 1 4 5 5 6 9 10 9 9 9 10 11 13 14 13 13 18 23 25 30 38 40 39 33 29 29 29 28 27 25 23
3 4 6 2 2 4 2 2 5 4 5 5 1 5 6 4 5 7 6 6 10 11 10 10 16 10 10 15 19 24 30 36 40 40 37 33 31 34 34 32 31 31 33 31
2 4 2 6 6 3 4 5 5 5 4 1 4 6 5 9 10 11 6 10 9 7 9 12 9 4 13 19 25 30 34 37 35 35 39 37 33 29 25 23 25 29 29 25
2 2 3 9 6 6 3 3 4 4 3 6 5 6 3 9 12 8 7 5 6 11 12 10 12 16 19 24 30 34 35 34 34 39 30 31 28 28 27 26 24 21 21 19
4 3 6 6 5 2 5 6 7 6 4 4 6 5 4 6 4 8 11 7 13 15 12 15 16 18 22 28 32 36 32 34 35 34 30 31 30 27 25 25 23 21 21 19
4 3 3 5 6 4 6 9 9 6 7 6 5 6 1 3 2 8 11 14 14 11 14 16 19 22 27 32 32 31 32 34 33 31 31 29 26 25 25 25 23 21 20 21
2 2 1 4 7 6 7 10 8 6 3 5 6 3 3 1 6 7 12 12 13 13 14 16 22 28 32 31 31 31 33 34 30 29 29 28 26 27 28 24 22 23 21 21
6 4 3 4 5 6 7 6 3 3 1 4 2 4 3 3 13 9 13 12 11 10 14 20 26 31 32 30 29 32 34 33 28 28 27 28 28 27 26 25 23 20 21 18
6 5 3 4 3 2 7 2 3 7 3 4 6 4 4 4 8 8 10 14 15 14 19 23 29 30 29 30 28 32 34 30 25 27 26 26 28 28 25 23 23 21 20 18
7 5 1 2 2 6 6 2 4 4 1 1 5 2 4 5 4 4 10 15 15 16 20 26 29 29 33 27 31 35 31 26 23 25 27 30 28 27 26 26 24 21 19 18
5 5 5 3 2 5 6 2 7 6 3 4 5 1 2 4 4 4 10 12 12 18 25 30 30 34 26 31 32 30 25 24 23 27 26 27 28 31 31 26 24 20 18 17
3 1 6 3 4 7 7 8 4 4 7 9 4 2 2 1 0 3 8 11 16 23 28 31 35 26 29 28 25 26 25 23 23 25 26 29 29 35 29 24 22 17 17 16
8 7 4 3 3 7 15 5 7 7 12 8 8 6 2 5 3 8 12 12 20 26 29 33 27 29 28 25 25 25 24 21 23 23 26 29 31 32 28 24 21 19 15 13
2 7 5 8 7 7 26 11 10 11 11 10 11 6 6 3 5 7 10 15 21 24 28 29 25 29 25 24 22 23 24 24 23 24 25 27 32 30 25 23 23 25 20 16
2 6 3 4 3 10 19 15 12 14 11 12 9 8 3 4 5 8 11 16 20 25 30 24 25 26 24 22 20 21 24 24 23 23 25 27 30 28 24 22 22 25 27 22
4 1 3 3 5 4 8 19 17 16 15 12 10 3 3 5 5 7 13 16 21 25 31 21 24 23 22 21 22 22 23 23 23 22 23 26 26 27 23 19 20 21 23 23
4 5 3 6 10 7 8 15 22 20 17 13 7 1 2 3 5 8 12 17 22 25 30 21 24 21 21 20 22 23 23 22 21 21 22 24 25 25 24 23 21 17 16 19
Wind_Direction
8 58 288 237 222 64 90 82 81 262 343 77 186 162 191 171 140 144 139 135 130 123 119 97 81 45 47 30 17 12 9 36 24 26 8 353 313 304 293 283 276 251 237 220
26 124 263 55 62 73 67 51 357 306 351 48 152 226 221 115 157 151 144 139 136 138 145 137 117 291 295 352 342 335 353 63 97 249 326 316 305 297 311 322 312 299 278 266
130 218 67 84 46 51 49 85 353 267 329 347 55 339 180 54 143 150 143 141 148 149 152 140 247 278 271 339 330 301 271 342 348 328 317 317 314 299 291 302 310 310 305 296
125 294 96 72 74 110 25 254 342 324 47 278 87 258 308 171 112 145 151 156 155 152 133 163 291 227 343 334 250 238 325 325 325 317 314 317 304 294 282 287 299 296 299 299
283 120 86 77 66 342 230 327 310 260 266 35 359 73 300 25 140 194 161 152 132 138 124 45 41 109 54 0 357 333 2 333 319 314 310 313 310 305 297 298 299 298 298 301
243 326 52 148 106 78 359 8 353 32 89 40 260 137 334 319 265 47 104 114 128 101 77 81 47 9 337 332 331 328 339 349 330 320 311 306 305 301 293 287 288 294 298 291
13 356 9 41 32 8 38 44 347 4 13 225 346 59 219 262 129 128 130 122 105 95 53 8 347 348 347 345 1 344 319 314 309 304 305 304 301 294 284 280 285 288 287 281
118 336 8 18 131 164 332 129 143 264 304 280 346 122 235 219 120 114 119 128 100 51 19 8 0 342 348 334 307 311 318 317 310 306 306 307 307 306 301 299 295 290 281 277
87 310 37 97 128 113 323 42 184 115 350 38 252 23 353 213 152 98 100 111 71 40 18 7 7 28 10 346 336 324 315 311 310 317 319 314 312 305 298 293 292 293 289 283
176 19 327 290 71 12 135 181 40 14 310 306 297 203 223 230 237 88 96 85 59 37 60 62 23 1 347 336 325 320 318 321 325 327 325 321 313 307 304 302 298 284 276 277
63 107 285 33 119 227 21 23 61 114 139 170 278 282 218 221 118 118 107 82 51 84 62 25 360 353 338 331 330 331 331 333 331 325 321 317 309 306 301 292 285 278 279 278
14 140 268 240 272 211 173 175 130 116 260 180 154 266 48 123 119 117 98 47 45 50 15 6 11 349 336 332 331 331 333 331 326 323 318 312 312 315 315 313 300 292 286 277
173 11 11 345 357 358 17 261 165 115 74 206 145 259 71 78 79 70 45 50 65 22 18 32 359 340 334 330 329 334 332 327 326 330 333 331 326 323 321 318 312 307 301 293
111 120 156 193 221 229 294 300 284 138 116 223 216 245 5 33 39 21 21 58 16 17 24 354 347 335 329 331 335 333 324 330 334 337 334 330 329 323 321 319 318 308 307 301
104 184 214 248 255 262 266 273 288 218 209 164 265 137 100 51 359 25 55 22 19 25 3 351 340 335 337 340 335 327 332 335 339 337 336 334 331 329 319 319 315 314 304 300
35 257 252 285 288 295 296 288 279 281 115 131 136 138 170 93 36 75 27 28 27 8 351 343 341 343 344 338 336 336 337 339 341 337 337 337 335 330 328 322 314 314 302 297
151 151 88 269 305 336 322 271 226 125 67 130 130 163 202 3 20 28 22 31 16 3 351 349 347 343 341 339 337 339 339 340 339 339 339 336 335 332 328 324 317 305 310 303
142 124 132 246 4 339 245 248 138 131 128 117 102 117 81 19 3 7 40 15 3 350 345 345 346 346 344 337 332 335 337 338 340 344 343 338 336 333 333 323 317 315 310 300
158 126 118 139 200 284 295 218 170 158 290 71 120 68 28 18 358 55 16 357 351 342 346 348 348 343 340 339 337 336 333 336 343 346 338 342 340 335 334 331 324 319 311 301
78 97 128 138 177 235 240 266 122 90 295 150 108 93 14 19 20 272 355 347 346 351 350 347 344 340 344 341 339 340 340 339 349 347 348 345 349 344 337 336 327 316 312 305
110 44 179 153 227 283 243 154 126 87 239 180 182 180 119 74 161 6 348 348 346 347 346 346 341 345 346 345 346 345 343 342 346 349 349 345 350 350 342 334 333 324 317 311
166 157 200 133 197 275 173 145 161 201 171 186 183 162 123 129 50 357 343 343 341 343 346 343 345 348 349 350 348 349 347 342 345 348 345 350 355 355 358 360 3 358 339 326
146 182 184 172 211 225 183 204 210 199 186 192 170 160 159 103 13 348 346 336 343 345 345 347 349 350 355 354 355 354 351 346 346 346 350 353 360 357 3 7 11 17 14 1
306 175 170 69 266 200 204 213 209 188 187 160 167 159 120 14 351 336 329 338 344 344 347 348 348 351 356 357 358 358 352 347 350 352 354 358 2 1 4 9 18 22 20 19
227 44 152 246 261 173 217 222 201 172 160 166 157 153 5 355 329 323 331 341 344 347 348 346 348 351 350 350 356 356 355 353 352 354 357 0 3 4 7 16 11 18 23 20
201 203 159 232 217 219 228 184 179 170 175 174 176 133 342 312 309 322 337 344 346 347 346 344 350 352 346 348 355 355 358 358 354 353 359 3 4 6 8 10 12 17 18 25
Height
1539 1548 1554 1546 1542 1544 1549 1554 1555 1546 1540 1537 1543 1546 1543 1542 1544 1548 1551 1552 1554 1555 1557 1557 1558 1559 1559 1558 1558 1558 1557 1559 1560 1560 1559 1558 1559 1558 1556 1554 1552 1549 1547 1545
1547 1553 1542 1539 1541 1546 1550 1557 1559 1548 1540 1541 1548 1548 1541 1544 1547 1546 1548 1552 1554 1556 1558 1556 1557 1557 1557 1555 1554 1554 1555 1556 1557 1557 1557 1556 1553 1552 1553 1552 1550 1550 1547 1543
1551 1545 1540 1542 1547 1552 1556 1560 1558 1558 1549 1544 1545 1554 1548 1545 1545 1550 1550 1550 1553 1555 1556 1556 1557 1556 1555 1555 1555 1554 1553 1553 1553 1552 1552 1553 1553 1549 1548 1547 1544 1542 1539 1538
1545 1540 1544 1548 1551 1551 1559 1549 1549 1552 1559 1572 1549 1583 1558 1549 1550 1550 1550 1551 1554 1556 1557 1557 1556 1557 1557 1556 1556 1554 1552 1550 1549 1547 1546 1543 1544 1543 1541 1540 1540 1537 1535 1533
1551 1544 1546 1551 1550 1546 1554 1545 1547 1547 1556 1559 1560 1572 1568 1557 1558 1556 1555 1555 1556 1558 1558 1558 1556 1557 1556 1555 1554 1552 1549 1547 1546 1544 1542 1540 1536 1535 1532 1531 1531 1530 1528 1526
1543 1540 1542 1546 1546 1546 1547 1550 1552 1558 1564 1583 1562 1570 1580 1568 1562 1558 1557 1558 1560 1559 1557 1557 1557 1557 1555 1553 1551 1549 1547 1545 1543 1540 1537 1534 1531 1528 1526 1523 1522 1521 1521 1519
1551 1550 1546 1545 1550 1547 1553 1571 1595 1589 1595 1589 1564 1574 1577 1563 1558 1557 1558 1558 1559 1558 1557 1557 1555 1553 1551 1550 1548 1545 1542 1540 1537 1534 1531 1528 1525 1522 1519 1517 1515 1513 1510 1510
1569 1573 1550 1547 1552 1557 1558 1570 1598 1593 1606 1591 1567 1581 1576 1559 1557 1557 1558 1558 1558 1558 1558 1557 1554 1551 1548 1546 1543 1541 1538 1535 1532 1529 1527 1524 1521 1518 1514 1511 1507 1504 1502 1500
1568 1566 1550 1548 1548 1552 1560 1574 1564 1582 1586 1592 1582 1568 1562 1559 1558 1557 1557 1558 1559 1558 1557 1554 1551 1549 1546 1544 1542 1539 1536 1533 1529 1526 1522 1517 1513 1508 1503 1500 1497 1493 1492 1491
1557 1572 1553 1551 1549 1551 1556 1557 1579 1591 1595 1593 1588 1576 1579 1563 1559 1560 1559 1559 1559 1558 1556 1553 1550 1547 1544 1543 1540 1537 1533 1529 1524 1518 1513 1507 1502 1498 1494 1491 1488 1484 1482 1481
1555 1569 1565 1554 1556 1561 1562 1567 1572 1581 1591 1606 1603 1587 1561 1557 1557 1559 1561 1561 1558 1556 1554 1550 1547 1545 1542 1539 1535 1531 1527 1521 1516 1510 1505 1499 1495 1490 1485 1481 1479 1476 1474 1472
1559 1570 1576 1563 1551 1551 1552 1559 1570 1600 1584 1589 1595 1591 1555 1557 1558 1559 1561 1558 1555 1554 1552 1549 1545 1542 1539 1536 1532 1527 1522 1516 1510 1503 1497 1490 1484 1479 1474 1470 1468 1465 1462 1461
1558 1574 1595 1577 1564 1556 1557 1553 1557 1570 1581 1584 1601 1587 1560 1559 1558 1558 1557 1556 1555 1552 1548 1544 1542 1540 1536 1532 1527 1522 1516 1509 1503 1496 1488 1482 1477 1471 1467 1463 1460 1458 1455 1453
1556 1570 1578 1591 1573 1566 1566 1559 1556 1567 1595 1577 1578 1563 1560 1559 1559 1557 1556 1554 1552 1547 1543 1541 1539 1536 1532 1527 1521 1515 1509 1503 1496 1488 1482 1475 1470 1464 1460 1457 1454 1451 1448 1446
1559 1572 1567 1566 1563 1561 1560 1558 1554 1559 1559 1570 1561 1563 1560 1558 1558 1557 1555 1551 1548 1544 1541 1538 1535 1532 1527 1521 1515 1509 1503 1497 1489 1483 1477 1470 1465 1460 1456 1451 1448 1444 1442 1440
1560 1570 1564 1566 1557 1557 1557 1552 1550 1547 1547 1553 1557 1562 1557 1558 1557 1554 1551 1547 1543 1541 1538 1536 1532 1528 1522 1516 1509 1504 1498 1491 1484 1478 1472 1466 1461 1455 1450 1445 1442 1439 1435 1433
1562 1568 1576 1578 1560 1560 1568 1549 1542 1545 1545 1547 1556 1555 1555 1554 1550 1548 1546 1544 1542 1539 1536 1532 1529 1524 1518 1511 1505 1499 1493 1486 1481 1475 1468 1463 1457 1451 1445 1440 1436 1432 1429 1427
1561 1567 1574 1578 1567 1583 1553 1540 1539 1545 1548 1548 1550 1552 1551 1551 1549 1548 1546 1543 1540 1537 1534 1530 1526 1520 1514 1508 1502 1495 1489 1483 1477 1471 1465 1459 1453 1446 1440 1435 1431 1427 1424 1421
1548 1562 1572 1579 1582 1564 1547 1541 1543 1545 1550 1547 1549 1550 1549 1548 1547 1546 1545 1542 1538 1535 1532 1528 1522 1516 1510 1504 1497 1491 1485 1479 1474 1468 1463 1456 1449 1442 1436 1430 1426 1422 1418 1416
1549 1551 1567 1578 1580 1580 1552 1541 1540 1541 1564 1546 1546 1547 1546 1545 1550 1546 1543 1540 1537 1533 1529 1524 1519 1513 1506 1500 1494 1487 1481 1476 1471 1466 1460 1454 1446 1439 1431 1425 1420 1416 1413 1411
1559 1561 1567 1575 1576 1563 1540 1539 1541 1560 1559 1542 1543 1543 1544 1544 1544 1543 1541 1538 1535 1531 1526 1521 1516 1509 1503 1496 1490 1484 1479 1474 1470 1464 1459 1452 1444 1435 1428 1421 1416 1412 1408 1405
1552 1564 1568 1569 1571 1567 1534 1539 1548 1539 1536 1538 1539 1540 1541 1541 1541 1540 1537 1535 1531 1527 1523 1518 1511 1506 1500 1494 1488 1483 1478 1473 1469 1463 1458 1451 1442 1435 1426 1419 1414 1409 1405 1402
1543 1538 1548 1549 1546 1527 1526 1527 1529 1530 1533 1535 1536 1537 1538 1538 1538 1536 1534 1531 1528 1524 1520 1514 1509 1503 1497 1492 1486 1482 1477 1472 1467 1462 1456 1450 1442 1435 1428 1420 1415 1409 1404 1400
1527 1526 1532 1534 1526 1524 1525 1526 1527 1529 1531 1534 1534 1535 1535 1535 1534 1533 1531 1529 1526 1522 1517 1511 1506 1501 1496 1491 1486 1482 1477 1471 1466 1461 1456 1449 1442 1436 1429 1423 1417 1411 1406 1400
1526 1523 1526 1528 1524 1525 1524 1523 1523 1526 1529 1530 1532 1533 1532 1532 1531 1530 1528 1526 1523 1519 1514 1509 1504 1499 1494 1490 1485 1481 1475 1471 1465 1460 1456 1450 1443 1437 1431 1425 1420 1414 1409 1404
1520 1522 1528 1530 1519 1519 1519 1520 1521 1523 1524 1526 1528 1529 1529 1529 1529 1527 1526 1523 1520 1516 1512 1507 1502 1497 1493 1488 1484 1479 1475 1470 1465 1460 1456 1451 1444 1438 1433 1427 1422 1417 1413 1408